Location: Houston
(29.7630°N, 95.3630°W)
Time: 09:46:47
(UTC-05:00)

ISS - All Passes

Search period start: 28 August 2015 00:00
Search period end: 07 September 2015 00:00
Orbit: 399 x 401 km, 51.6° (Epoch: 28 August)

Date Brightness Start Highest point End Pass type
(mag) Time Alt. Az. Time Alt. Az. Time Alt. Az.
28 Aug - 09:58:02 10° SW 10:01:14 64° SE 10:04:26 10° NE daylight
28 Aug - 11:37:11 10° NW 11:37:58 11° NNW 11:38:37 10° NNW daylight
28 Aug - 18:06:22 10° NNW 18:09:31 48° NE 18:12:40 10° ESE daylight
29 Aug - 09:05:04 10° S 09:07:47 25° SE 09:10:32 10° ENE daylight
29 Aug - 10:41:43 10° W 10:44:10 19° NW 10:46:35 10° N daylight
29 Aug - 17:13:17 10° NNW 17:15:53 22° NE 17:18:31 10° E daylight
29 Aug - 18:49:39 10° WNW 18:52:12 21° SW 18:54:42 10° S daylight
30 Aug - 08:13:30 10° SE 08:14:21 11° SE 08:15:21 10° ESE daylight
30 Aug - 09:47:25 10° WSW 09:50:30 40° NW 09:53:34 10° NNE daylight
30 Aug - 16:20:49 10° N 16:22:05 12° NNE 16:23:28 10° ENE daylight
30 Aug - 17:55:35 10° NW 17:58:44 52° SW 18:01:53 10° SSE daylight
31 Aug - 08:53:40 10° SW 08:56:54 80° SE 09:00:09 10° NE daylight
31 Aug - 17:01:59 10° NW 17:05:12 59° NE 17:08:23 10° SE daylight
01 Sep - 08:00:31 10° SSW 08:03:22 30° SE 08:06:17 10° ENE daylight
01 Sep - 09:37:34 10° W 09:39:50 17° NW 09:42:01 10° N daylight
01 Sep - 16:08:45 10° NNW 16:11:30 25° NE 16:14:17 10° E daylight
01 Sep - 17:45:27 10° W 17:47:46 18° SW 17:50:00 10° S daylight
02 Sep - 07:08:20 10° SSE 07:09:52 13° SE 07:11:32 10° E daylight
02 Sep - 08:43:03 10° WSW 08:46:03 34° NW 08:49:02 10° NNE daylight
02 Sep - 15:16:00 10° N 15:17:41 13° NE 15:19:26 10° ENE daylight
02 Sep - 16:51:09 10° WNW 16:54:14 42° SW 16:57:19 10° SSE daylight
03 Sep - 07:49:08 10° SW 07:52:22 85° NW 07:55:37 10° NE daylight
03 Sep - 15:57:24 10° NW 16:00:38 71° NE 16:03:51 10° SE daylight
04 Sep - 06:55:45 10° SSW 06:58:45 36° SE 07:01:47 10° ENE daylight
04 Sep - 08:33:15 10° WNW 08:35:16 15° NW 08:37:12 10° N daylight
04 Sep - 15:04:01 10° NNW 15:06:54 29° NE 15:09:48 10° ESE daylight
04 Sep - 16:41:06 10° W 16:43:07 15° SW 16:45:01 10° SSW daylight
05 Sep - 06:03:13 10° SSE 06:05:10 15° SE 06:07:13 10° E visible
05 Sep - 07:38:30 10° WSW 07:41:23 29° NW 07:44:16 10° NNE daylight
05 Sep - 14:11:03 10° N 14:13:01 15° NE 14:15:04 10° ENE daylight
05 Sep - 15:46:31 10° WNW 15:49:31 35° SW 15:52:31 10° SSE daylight
06 Sep - 06:44:24 10° SW 06:47:37 70° NW 06:50:51 10° NE daylight
06 Sep - 14:52:37 10° NW 14:55:52 86° NE 14:59:06 10° SE daylight
